Temp
67 59 55 62 64 63 61 59 57 64 70 67 67 68 72 78 80 76 79 80 81 82 87 88 87 86 85 85 84 84 83 83 83 83 81 80 76 71 69 71 78 75 72 73
62 56 63 67 66 63 62 57 57 62 67 64 62 63 69 74 77 77 78 79 80 82 84 84 84 83 83 82 83 83 83 83 83 84 83 80 75 67 68 70 74 76 74 70
57 62 68 63 61 59 60 56 56 55 61 64 62 58 62 70 75 78 79 80 82 80 80 80 80 81 80 80 78 81 83 84 82 83 81 71 69 67 64 67 70 74 73 73
58 65 63 61 57 60 53 62 59 56 53 47 61 46 60 66 70 73 76 76 77 78 78 79 79 80 80 79 78 80 82 83 82 81 77 68 66 65 65 67 69 72 73 73
54 58 58 55 58 62 55 62 58 56 51 52 54 51 58 66 64 67 71 74 76 76 75 76 78 79 81 79 78 76 79 80 78 76 76 70 66 72 72 73 69 69 71 73
58 66 62 60 62 62 62 57 56 54 49 39 49 51 54 59 64 68 71 73 73 74 74 76 78 79 80 77 76 77 74 74 70 69 70 68 67 72 72 72 69 70 69 70
56 58 64 65 56 61 58 49 35 33 33 35 53 50 54 64 69 71 69 69 70 72 72 74 75 76 77 76 75 76 78 72 70 68 69 67 69 69 73 71 70 68 64 64
43 42 55 58 56 52 53 50 36 28 33 40 53 44 55 67 69 70 71 70 70 71 72 73 74 75 76 75 74 73 77 76 70 69 67 65 68 70 76 74 71 71 67 64
41 43 58 56 56 56 50 43 53 41 44 38 47 54 59 64 63 65 67 68 67 68 70 73 74 74 75 76 74 71 72 76 70 67 68 64 65 69 74 75 70 73 69 67
46 37 52 55 55 55 45 54 37 37 27 29 43 45 48 55 58 63 64 65 67 69 70 72 74 74 75 75 74 72 70 72 72 69 67 63 63 67 71 73 71 71 72 67
50 44 44 52 47 44 41 40 46 44 39 35 34 42 59 57 59 60 63 64 67 68 70 72 72 74 75 74 73 70 69 67 67 68 66 64 63 65 68 70 70 71 70 70
49 41 36 42 53 53 47 42 34 33 36 42 42 42 57 61 63 63 62 64 67 68 70 73 72 73 73 71 71 70 66 66 64 65 65 65 62 64 66 68 71 72 70 70
45 40 31 37 48 49 40 41 41 38 35 31 34 38 57 58 62 65 63 65 67 67 70 72 73 73 72 71 68 67 67 65 65 63 62 63 62 63 65 66 69 67 68 70
47 40 36 31 37 35 37 36 42 40 33 36 35 38 43 45 58 63 64 66 67 67 69 71 72 72 72 70 66 65 62 63 61 57 60 61 62 63 64 68 67 65 68 69
46 35 39 42 46 46 45 43 42 38 39 35 44 44 45 56 60 63 64 64 65 66 67 69 70 70 68 67 65 64 60 61 59 54 54 60 61 62 64 65 64 65 66 67
47 32 39 36 43 45 42 45 45 45 43 44 46 47 60 63 64 62 63 63 63 64 66 68 67 65 63 63 62 62 58 54 56 52 52 58 60 61 63 63 63 63 64 64
40 38 35 30 41 40 34 43 46 47 49 46 40 50 59 58 59 60 61 62 62 64 63 63 61 61 61 60 60 57 56 55 51 51 53 54 60 61 65 63 63 62 61 58
39 38 36 30 35 22 42 52 51 47 49 52 53 55 58 59 59 60 62 61 63 61 60 60 60 60 60 59 55 51 53 53 50 49 50 53 59 62 66 62 60 56 54 48
48 40 31 26 27 35 41 44 46 44 44 54 53 55 56 54 52 55 58 59 56 54 56 56 58 57 56 52 49 49 48 49 48 45 46 47 57 64 65 58 52 48 45 43
39 38 32 32 23 22 35 47 53 52 37 50 49 47 47 45 35 42 45 48 48 50 51 51 53 52 49 46 45 46 44 43 42 40 41 43 45 62 58 49 46 44 41 39
32 32 28 31 27 35 41 49 52 32 33 46 44 39 36 34 38 41 42 43 44 48 47 49 49 46 43 43 41 41 41 38 38 39 40 42 44 54 51 45 42 39 37 36
27 27 29 30 27 24 39 46 33 38 47 42 41 37 34 39 40 43 44 42 44 44 46 49 48 46 44 40 37 37 37 37 37 38 38 37 44 47 45 42 38 37 35 34
27 30 28 30 30 36 37 35 37 38 40 38 37 37 44 42 42 42 40 40 41 44 46 48 47 46 45 41 35 33 34 35 35 35 35 35 36 40 41 38 36 35 35 33
33 37 31 31 34 33 35 36 36 35 35 37 39 44 45 41 42 41 41 42 43 44 43 45 44 43 41 40 36 32 34 35 33 32 33 33 33 32 35 36 35 34 33 32
36 37 33 33 35 38 39 36 35 36 37 38 40 44 43 42 40 40 39 39 40 39 40 40 38 37 38 38 35 31 32 33 32 31 32 32 32 31 30 30 31 31 32 33
40 32 30 30 34 32 34 35 40 37 38 40 40 41 43 41 39 39 36 36 35 34 35 33 33 33 33 35 33 29 31 32 31 30 30 30 31 30 29 28 28 31 30 30
MSLP
1005.05 1005.21 1003.92 1003.47 1003.27 1003.04 1002.68 1002.02 1001.10 1000.23 999.78 999.72 999.11 998.24 997.84 997.28 997.02 997.91 998.08 998.16 998.50 998.57 998.80 999.37 1000.11 1000.69 1001.34 1001.54 1001.66 1001.63 1001.61 1001.82 1002.23 1002.36 1002.89 1003.41 1004.04 1005.12 1005.82 1006.39 1006.51 1006.90 1007.59 1008.06
1004.65 1003.15 1003.59 1003.32 1002.88 1002.59 1002.31 1002.02 1001.19 1001.03 1000.60 1000.91 1000.53 999.38 998.55 997.61 996.84 997.24 997.62 997.71 998.07 998.19 998.49 999.38 1000.22 1000.93 1001.29 1001.36 1001.44 1001.27 1001.16 1001.23 1001.42 1001.62 1002.15 1002.64 1004.05 1005.19 1005.65 1006.24 1006.37 1006.43 1007.08 1007.76
1003.85 1002.83 1002.71 1002.86 1002.54 1002.30 1002.05 1001.82 1001.74 1001.68 1001.48 1001.43 1001.00 999.60 999.08 998.12 997.10 996.89 997.14 997.45 997.52 998.11 998.93 999.59 1000.52 1000.84 1001.22 1001.23 1001.52 1001.10 1000.65 1000.67 1001.01 1001.32 1001.83 1003.47 1004.57 1005.17 1005.82 1006.01 1006.23 1006.25 1006.87 1007.30
1003.99 1003.09 1002.54 1002.23 1002.30 1002.48 1001.87 1002.36 1002.41 1002.46 1002.35 1001.52 1001.62 998.57 997.77 996.85 995.82 996.19 996.42 997.36 998.02 998.87 999.75 1000.06 1000.31 1000.54 1000.81 1001.19 1001.58 1001.07 1000.70 1000.48 1000.71 1001.38 1001.77 1003.03 1003.84 1004.30 1004.83 1005.34 1005.88 1005.87 1006.41 1006.87
1004.12 1003.42 1002.86 1002.40 1002.24 1002.56 1001.96 1002.82 1003.01 1003.03 1002.89 1002.30 1000.85 999.32 996.83 995.93 996.16 996.64 996.82 997.59 998.34 999.29 1000.04 1000.17 1000.36 1000.54 1000.69 1001.32 1001.54 1001.58 1000.98 1000.67 1001.04 1001.79 1001.63 1002.63 1003.48 1003.66 1003.95 1004.22 1004.98 1005.53 1005.78 1006.21
1004.30 1003.81 1003.13 1002.40 1002.77 1002.86 1003.30 1003.75 1003.62 1004.18 1004.00 1002.51 1000.33 999.30 996.57 995.86 995.84 996.21 997.39 998.26 999.04 999.72 1000.18 1000.31 1000.48 1000.68 1000.62 1001.19 1001.23 1001.00 1001.32 1001.25 1001.97 1002.24 1002.21 1002.54 1003.05 1002.70 1002.80 1003.38 1004.22 1004.65 1005.16 1005.70
1003.96 1002.68 1002.35 1001.92 1002.51 1003.17 1003.68 1004.38 1004.66 1004.30 1003.61 1000.64 1000.16 998.72 996.81 995.91 995.12 995.86 997.43 999.19 999.83 1000.06 1000.36 1000.39 1000.49 1000.70 1000.95 1001.12 1001.23 1000.82 1000.41 1001.22 1001.79 1002.19 1002.21 1002.46 1002.60 1002.49 1002.37 1003.26 1003.94 1004.14 1004.96 1005.50
1005.19 1003.66 1002.79 1003.41 1003.13 1002.89 1003.05 1003.84 1004.43 1003.40 1002.02 1000.39 999.59 997.90 996.61 996.50 996.94 997.23 998.19 999.46 1000.06 1000.25 1000.57 1000.48 1000.61 1000.84 1000.97 1001.08 1001.19 1001.25 1000.37 1000.22 1001.45 1002.01 1002.10 1002.33 1002.39 1002.33 1002.19 1002.64 1003.16 1003.49 1004.38 1005.12
1006.80 1005.12 1003.85 1004.64 1004.88 1004.72 1003.98 1004.32 1004.22 1004.16 1003.25 1002.07 999.54 998.08 998.05 997.75 998.04 998.67 999.06 999.60 1000.30 1000.62 1000.57 1000.40 1000.64 1000.79 1000.96 1000.81 1000.93 1001.46 1000.97 1000.21 1001.18 1001.75 1001.97 1002.12 1002.23 1002.17 1001.88 1002.20 1003.01 1003.18 1003.81 1004.54
1008.61 1006.97 1005.68 1004.97 1005.59 1005.48 1006.26 1005.23 1005.25 1005.46 1004.00 1002.28 999.90 998.27 997.57 998.05 998.46 998.75 999.37 1000.02 1000.62 1000.60 1000.63 1000.49 1000.55 1000.76 1000.92 1000.89 1000.95 1001.28 1001.50 1000.84 1000.94 1001.35 1001.76 1002.02 1002.21 1002.03 1001.83 1002.04 1002.45 1002.95 1003.18 1004.07
1009.37 1008.23 1006.88 1005.78 1005.51 1005.50 1006.66 1006.28 1005.20 1005.37 1004.82 1002.38 1000.47 998.83 998.25 998.15 998.62 999.11 999.95 1000.49 1000.58 1000.60 1000.41 1000.26 1000.46 1000.73 1000.90 1001.03 1001.08 1001.41 1001.50 1001.62 1001.28 1001.31 1001.43 1001.69 1001.91 1001.95 1001.67 1001.71 1002.08 1002.59 1003.00 1003.52
1009.79 1009.30 1007.38 1006.24 1005.30 1006.10 1006.75 1006.52 1007.22 1006.05 1004.55 1003.52 1001.66 1000.22 999.04 998.05 999.34 999.61 1000.04 1000.41 1000.52 1000.60 1000.53 1000.21 1000.28 1000.60 1000.78 1001.22 1001.38 1001.25 1001.55 1001.54 1001.84 1001.38 1001.11 1001.27 1001.59 1001.52 1001.38 1001.57 1001.87 1002.32 1002.67 1003.24
1011.21 1009.39 1008.16 1006.38 1005.21 1006.29 1007.14 1007.66 1007.49 1007.32 1006.82 1004.92 1002.73 1001.74 1000.91 1000.33 999.66 999.30 999.67 1000.13 1000.35 1000.53 1000.39 1000.25 1000.00 1000.08 1000.34 1000.88 1001.56 1001.73 1001.80 1001.98 1001.78 1001.48 1001.02 1001.05 1001.14 1001.06 1001.07 1001.28 1001.59 1002.36 1002.53 1002.79
1011.86 1010.74 1009.28 1007.75 1006.29 1008.01 1007.48 1007.89 1007.66 1007.10 1006.20 1004.41 1003.52 1002.11 1001.98 1001.92 999.86 999.39 999.74 1000.09 1000.39 1000.36 1000.29 1000.12 999.95 1000.03 1000.13 1000.82 1001.96 1002.30 1002.44 1002.18 1002.03 1001.82 1001.07 1000.84 1000.76 1000.69 1000.82 1000.95 1001.41 1002.02 1002.24 1002.56
1011.24 1010.51 1009.72 1008.60 1007.12 1006.51 1006.09 1006.20 1006.42 1006.47 1006.14 1004.90 1002.28 1001.53 1002.06 1000.61 1000.02 1000.01 1000.18 1000.32 1000.38 1000.30 1000.41 999.98 999.94 1000.18 1000.82 1001.59 1002.24 1002.42 1003.05 1002.73 1002.59 1002.10 1001.34 1000.65 1000.57 1000.56 1000.57 1000.91 1001.29 1001.87 1002.26 1002.64
1010.52 1010.59 1009.88 1008.78 1007.78 1006.67 1005.53 1005.18 1005.23 1005.06 1005.08 1004.33 1002.98 1001.35 1000.69 1000.25 999.95 1000.03 1000.29 1000.47 1000.59 1000.61 1000.42 1000.12 1000.69 1001.49 1002.16 1002.57 1002.77 1002.83 1003.12 1003.27 1002.99 1002.39 1001.39 1000.73 1000.39 1000.22 1000.35 1000.69 1001.21 1001.77 1002.24 1002.62
1011.38 1010.79 1010.08 1008.90 1007.93 1006.82 1005.42 1004.32 1004.00 1003.89 1003.65 1003.81 1002.71 1002.00 1001.04 1000.84 1000.56 1000.75 1000.97 1001.08 1000.98 1000.82 1001.19 1001.50 1002.25 1002.83 1003.23 1003.34 1003.43 1003.42 1003.54 1003.35 1003.33 1002.44 1001.26 1000.91 1000.07 999.98 1000.05 1000.44 1001.14 1001.81 1002.52 1003.21
1011.20 1011.00 1010.82 1009.72 1008.68 1006.97 1005.05 1004.10 1003.71 1003.54 1003.68 1003.48 1002.80 1002.26 1001.73 1001.59 1001.99 1002.29 1002.45 1001.87 1001.47 1001.95 1002.49 1002.99 1003.44 1003.75 1003.98 1004.06 1004.43 1004.37 1004.03 1003.54 1003.26 1002.60 1001.45 1000.83 999.94 999.67 999.56 1000.28 1001.21 1002.16 1003.17 1004.02
1010.63 1010.87 1010.84 1010.35 1009.09 1007.68 1005.84 1005.39 1004.42 1004.16 1003.78 1003.44 1003.10 1003.04 1002.70 1003.80 1004.57 1003.60 1003.67 1003.39 1003.75 1004.07 1004.48 1004.77 1004.86 1004.95 1004.91 1005.38 1005.55 1004.93 1004.46 1004.05 1003.41 1003.11 1001.78 1001.16 999.84 999.07 999.39 1000.39 1001.48 1002.76 1003.76 1004.87
1012.51 1012.26 1011.73 1010.41 1009.71 1008.11 1007.37 1006.21 1005.74 1005.47 1004.83 1005.08 1005.47 1005.52 1005.84 1006.54 1006.25 1006.08 1006.59 1006.46 1006.21 1006.31 1006.40 1006.38 1006.13 1006.13 1006.35 1006.66 1006.45 1005.32 1005.03 1004.80 1004.10 1003.69 1002.51 1001.50 1000.72 998.71 999.58 1000.95 1002.09 1003.27 1004.28 1005.45
1012.27 1011.49 1010.84 1010.59 1010.23 1009.09 1009.01 1007.62 1007.00 1007.06 1007.75 1007.46 1008.01 1008.47 1008.32 1008.11 1008.38 1008.29 1008.26 1008.04 1007.83 1007.58 1007.58 1007.41 1007.17 1007.15 1007.60 1007.60 1007.12 1006.04 1005.74 1005.68 1005.03 1003.96 1002.83 1001.63 1000.48 999.21 999.75 1001.41 1002.50 1003.61 1004.84 1006.08
1013.93 1013.23 1011.90 1011.48 1010.67 1010.10 1011.26 1009.35 1009.61 1009.62 1008.73 1009.30 1009.59 1009.63 1009.62 1008.69 1008.99 1009.02 1009.16 1009.04 1008.67 1008.72 1008.28 1007.86 1007.47 1007.62 1007.94 1008.22 1007.54 1006.89 1006.59 1006.23 1005.13 1004.25 1002.71 1002.13 1000.20 999.62 1000.10 1001.60 1002.95 1003.99 1004.99 1006.45
1014.82 1015.15 1014.32 1013.76 1013.67 1013.68 1013.35 1012.93 1012.62 1011.90 1011.03 1010.98 1010.79 1010.55 1009.92 1010.00 1009.94 1010.08 1010.15 1010.02 1009.76 1009.26 1008.83 1008.44 1008.16 1007.91 1007.97 1008.11 1007.97 1007.75 1007.33 1006.30 1005.49 1004.71 1003.27 1002.55 1001.28 1001.12 1000.61 1001.82 1003.22 1004.46 1005.42 1006.41
1015.36 1015.10 1014.88 1014.28 1014.50 1014.36 1014.12 1014.03 1013.77 1013.41 1012.97 1012.53 1012.04 1011.17 1010.77 1010.64 1010.70 1010.85 1010.85 1010.62 1010.31 1010.00 1009.76 1009.45 1009.06 1008.77 1008.44 1008.42 1008.72 1008.56 1007.68 1006.64 1005.98 1005.15 1004.38 1003.91 1002.84 1003.22 1002.70 1003.02 1003.85 1004.69 1005.83 1006.94
1015.35 1015.20 1015.35 1014.59 1014.69 1014.29 1014.23 1014.82 1014.63 1014.15 1013.75 1013.15 1012.63 1011.98 1011.91 1011.82 1011.82 1011.69 1011.81 1011.77 1011.51 1011.33 1011.08 1010.83 1010.53 1010.13 1009.36 1009.28 1009.42 1009.10 1008.23 1007.53 1006.47 1005.58 1005.34 1004.71 1003.60 1004.52 1004.71 1004.75 1005.62 1006.16 1006.83 1007.35
1015.40 1016.20 1016.11 1015.62 1015.87 1015.93 1015.37 1015.37 1014.63 1014.28 1013.81 1013.50 1013.12 1012.76 1012.49 1012.54 1012.61 1012.73 1012.93 1013.02 1013.01 1012.78 1012.46 1012.12 1011.78 1011.39 1010.89 1010.33 1010.14 1009.75 1009.32 1008.40 1007.71 1006.90 1006.67 1006.06 1004.89 1005.62 1005.60 1006.42 1007.59 1008.33 1008.83 1009.41
Wind_Speed
16 15 19 21 22 26 24 24 24 22 14 15 22 18 19 20 18 17 17 14 14 15 14 12 6 3 6 8 10 13 12 12 11 11 12 12 13 9 9 9 17 14 11 15
16 19 17 20 23 24 25 24 26 24 20 17 18 22 20 21 17 15 19 17 16 13 9 7 2 4 5 7 9 10 12 12 12 11 11 10 11 6 6 7 11 12 13 13
22 22 11 14 20 24 24 25 23 25 19 15 20 24 24 26 23 20 17 16 10 6 7 4 4 3 4 5 8 10 10 11 12 14 8 6 7 5 8 10 11 13 13 12
15 15 22 24 20 18 21 20 23 22 18 18 22 22 23 21 20 19 19 12 9 10 6 3 3 3 5 7 8 10 8 8 8 12 13 13 10 8 6 8 9 10 15 15
18 20 12 19 22 20 21 17 14 13 16 20 23 17 16 12 15 12 15 12 9 6 3 1 3 6 6 7 8 8 9 5 4 11 7 10 10 11 10 10 14 14 11 15
24 21 20 19 17 18 20 24 19 15 14 17 26 23 18 15 18 18 14 12 9 7 4 2 3 5 6 6 7 7 7 5 5 9 10 12 14 13 9 9 8 10 7 8
20 19 17 21 19 17 15 14 11 11 13 22 20 21 17 10 15 19 16 10 6 5 3 1 4 7 8 8 11 10 6 5 6 8 11 10 13 11 9 11 11 10 8 8
16 17 7 10 15 16 20 17 12 17 14 16 24 16 16 21 8 11 12 8 5 5 2 1 4 6 7 8 9 14 11 2 5 9 10 6 9 6 9 12 7 7 10 9
14 20 7 7 8 11 12 16 19 23 20 11 10 16 6 9 14 11 12 9 5 3 4 4 4 5 7 9 9 9 13 8 2 8 9 8 7 10 9 10 8 8 10 10
16 20 18 19 10 12 8 14 10 8 7 19 15 14 8 17 15 13 11 7 4 1 3 5 6 5 7 10 9 9 10 11 7 7 9 7 8 10 7 10 11 11 10 12
18 18 18 22 13 11 2 12 13 11 10 12 15 13 16 18 16 13 10 3 1 5 6 6 6 6 7 9 11 9 10 11 9 7 8 9 8 13 8 8 9 9 10 12
17 9 13 20 11 4 6 5 2 7 17 14 17 7 18 20 14 11 8 2 3 6 10 11 7 8 6 8 10 11 10 12 10 10 7 10 10 8 8 8 10 9 10 11
10 7 10 15 16 9 3 4 1 6 3 10 14 5 11 8 14 10 3 3 6 6 11 12 10 7 7 5 10 11 10 11 10 12 8 9 10 10 10 11 12 10 9 10
8 15 16 13 15 6 14 7 10 7 8 8 8 7 2 6 14 1 4 7 9 8 12 12 11 9 7 7 8 10 13 12 12 11 9 9 9 9 9 9 9 8 8 9
14 16 17 18 23 22 17 16 11 10 13 15 16 6 12 14 9 9 9 8 11 10 12 12 8 7 11 10 10 10 11 14 13 10 10 10 9 7 8 8 9 9 8 9
8 9 16 17 18 21 21 20 15 15 14 17 18 19 14 14 7 10 12 12 13 13 14 9 9 11 11 11 11 12 12 13 15 11 7 10 8 8 9 10 11 11 9 9
14 12 13 15 16 14 15 17 18 18 16 15 16 17 16 14 12 13 15 15 16 15 9 9 10 9 10 11 12 13 14 13 14 11 9 11 9 10 14 12 11 10 9 9
15 16 12 14 17 16 12 7 13 11 11 16 17 17 15 13 16 19 18 20 15 11 10 10 9 10 11 11 12 13 14 14 13 12 10 10 11 15 14 12 11 9 9 9
8 10 7 5 9 16 17 10 12 14 13 13 14 15 16 18 18 16 15 14 11 10 10 10 11 12 12 12 13 13 12 14 12 12 11 12 13 15 14 9 11 9 11 9
10 12 11 11 6 5 2 3 7 12 12 14 15 15 18 16 8 6 12 12 12 11 12 11 12 11 11 13 14 12 12 14 14 14 15 13 14 13 11 12 12 7 10 11
13 8 10 11 8 6 15 18 12 7 6 12 13 14 12 6 4 5 6 7 9 10 10 11 10 9 10 12 13 12 12 13 14 14 13 12 15 8 15 11 11 12 12 12
6 10 7 5 5 3 22 13 12 13 16 12 12 11 8 9 2 3 7 9 11 11 11 11 9 8 8 11 11 12 12 15 15 14 11 11 12 9 12 16 12 13 15 14
4 6 7 7 8 13 13 7 13 16 11 10 9 9 9 10 9 9 8 9 9 10 11 12 11 11 9 11 12 13 13 14 14 11 9 9 14 6 13 16 15 12 11 12
4 7 3 11 7 14 10 12 13 11 9 9 8 11 12 11 11 9 9 9 10 11 12 13 13 13 12 13 12 12 13 13 11 10 8 3 10 9 9 8 8 10 10 10
5 6 11 4 5 14 9 11 10 9 10 11 12 12 12 10 10 10 10 11 11 12 13 13 13 13 14 13 13 14 14 12 10 10 9 6 9 12 12 13 9 8 8 7
5 4 5 5 10 9 8 12 15 15 16 15 14 14 13 14 13 12 10 10 11 12 13 12 13 13 14 14 14 14 13 11 9 8 8 8 7 7 12 13 15 28 26 28
Wind_Direction
197 226 235 238 231 252 270 271 272 271 266 271 268 259 258 252 220 221 240 241 254 234 222 215 215 212 245 263 264 261 252 240 233 216 213 211 200 184 186 202 223 175 190 202
251 234 253 260 258 261 254 254 261 269 277 275 267 275 271 274 256 226 242 246 237 232 197 196 241 278 278 284 273 269 251 243 231 219 213 210 204 183 175 199 219 209 202 187
257 266 251 264 250 255 253 257 259 267 275 279 273 261 260 260 257 248 235 243 236 184 205 162 222 251 284 338 325 295 261 238 222 226 187 135 167 157 190 205 210 212 207 204
285 284 268 262 248 266 258 257 261 267 268 255 250 264 256 253 227 231 220 207 176 175 183 203 268 315 327 13 342 326 292 260 209 230 178 187 187 190 193 191 206 205 205 203
275 292 250 263 265 253 258 282 282 274 254 270 251 257 255 207 206 194 192 172 168 140 173 311 330 354 344 11 342 338 314 275 225 237 225 182 192 205 191 199 190 204 209 211
270 265 267 275 272 268 259 270 257 251 268 252 245 249 247 230 211 185 176 164 154 156 148 295 28 323 356 13 341 331 324 310 251 228 220 196 211 224 189 186 185 196 199 203
300 287 267 242 243 245 239 231 252 242 224 238 234 235 247 273 219 180 160 158 169 145 148 308 10 350 355 358 347 330 305 266 238 223 226 231 220 232 193 185 196 184 177 199
301 284 270 4 285 268 229 225 221 224 232 248 227 234 250 229 82 78 121 152 159 176 115 327 356 346 344 354 3 338 326 256 247 235 229 247 239 220 212 195 202 187 186 187
316 288 315 297 317 316 253 233 239 258 279 274 255 216 100 133 143 160 162 170 143 181 232 358 337 352 337 343 351 352 326 328 217 229 234 231 245 244 210 210 192 227 168 178
298 295 296 300 225 246 309 294 230 224 219 235 244 219 210 173 166 163 150 149 182 255 321 322 310 325 324 343 343 350 339 313 307 233 227 216 221 240 225 209 200 200 189 170
289 274 278 281 261 303 193 271 220 236 249 263 240 238 226 185 166 161 136 150 39 351 328 311 308 309 318 343 345 344 341 334 293 286 241 210 217 228 227 204 194 196 183 193
299 299 284 278 286 356 259 292 7 260 222 236 258 243 321 151 157 166 144 142 18 321 317 304 284 287 327 343 342 342 355 330 324 278 254 225 223 222 203 200 216 194 199 184
330 287 300 270 248 139 355 317 265 262 228 282 254 197 206 186 182 170 113 18 319 306 299 298 278 275 285 323 351 346 351 346 331 308 251 235 225 212 210 194 196 189 193 207
293 268 264 287 304 175 275 230 289 300 286 307 262 163 144 296 247 310 5 336 313 311 302 298 284 282 294 8 349 344 334 346 342 338 266 237 223 211 207 188 177 173 192 206
232 251 275 286 294 292 282 281 254 264 280 281 294 285 200 249 313 326 341 317 309 305 307 296 293 330 355 346 324 331 328 328 335 315 331 236 224 218 191 181 172 172 184 192
257 268 279 285 281 291 283 274 265 257 262 272 286 290 292 277 318 326 320 314 309 305 297 299 353 343 331 324 326 328 328 325 318 313 318 277 222 204 195 174 173 176 175 157
285 281 290 291 299 297 278 271 267 263 257 255 269 275 295 318 314 317 324 316 309 302 341 331 340 319 329 330 334 337 324 321 308 299 309 306 215 212 202 171 168 171 151 120
270 281 287 288 286 269 280 316 314 314 291 287 282 282 292 326 350 329 312 288 287 7 358 346 337 336 334 342 341 332 322 319 315 307 322 302 235 229 183 170 162 127 125 117
299 285 271 266 281 287 304 358 8 337 309 296 308 315 342 360 333 303 23 24 36 29 1 344 343 338 344 348 334 330 327 323 325 319 323 320 264 222 178 152 128 124 116 108
290 265 269 256 270 287 229 320 310 317 278 23 5 348 336 338 297 343 10 15 20 11 359 347 342 344 349 340 332 334 338 328 328 325 314 310 299 219 140 130 122 107 105 107
321 331 221 243 239 258 355 337 324 250 349 14 9 350 326 310 299 15 7 17 16 1 357 344 348 353 350 338 336 345 339 331 324 318 303 306 289 216 133 124 123 118 112 106
316 336 352 323 249 11 3 326 354 344 336 8 343 13 332 36 68 70 31 14 13 356 346 352 346 351 356 345 349 347 342 330 328 320 327 325 316 147 128 127 122 123 122 114
335 341 311 316 15 353 7 357 352 5 22 19 12 331 353 26 29 27 20 13 4 358 351 353 351 347 359 2 3 346 337 337 337 325 360 351 16 4 131 131 127 124 125 123
301 305 301 316 355 342 24 8 12 10 358 355 356 14 26 31 23 21 14 8 5 7 1 354 356 351 354 5 359 348 346 339 341 333 10 1 70 34 58 92 110 123 129 124
311 328 321 277 6 328 15 5 350 359 11 5 4 27 29 27 25 16 15 10 4 5 1 358 358 352 355 5 360 353 353 349 351 358 356 25 71 76 58 62 61 79 70 111
5 1 338 334 354 318 319 336 3 7 11 6 13 10 25 24 23 13 19 13 7 4 2 1 2 356 356 0 9 2 353 2 11 23 12 13 54 73 92 78 81 76 85 87